Miscellaneous Local Product
Issued by NWS Hastings, NE

Home | Current Version | Previous Version | Text Only | Print | Product List | Glossary On
Versions: 1 2 3 4 5 6 7 8 9 10 11 12 13 14 15 16 17 18 19 20 21 22 23 24 25 26 27 28 29 30 31 32 33 34 35 36 37 38 39 40 41 42 43 44 45 46 47 48 49 50
000
AXUS43 KGID 211702
MISGRI

GID CWA HOURLY WEATHER ROUNDUP
NATIONAL WEATHER SERVICE HASTINGS NE
1100 AM CST WED FEB 21 2018

NOTE: "FAIR" INDICATES FEW OR NO CLOUDS BELOW 12,000 FEET WITH NO
SIGNIFICANT WEATHER AND/OR OBSTRUCTIONS TO VISIBILITY.

...SOUTH CENTRAL NEBRASKA...

CITY           SKY/WX    TMP DP  RH WIND       PRES   REMARKS
GRAND ISLAND   SUNNY     17   3  54 E5        30.58R WCI  10
KEARNEY        SUNNY     19   3  49 SE7       30.56S WCI  10
HASTINGS       SUNNY     16   0  49 CALM      30.57S
ORD            SUNNY     13   1  59 S8        30.54S WCI   2
YORK           SUNNY     16   3  57 SE7       30.60S WCI   6
AURORA         SUNNY     17   1  49 SE5       30.58S WCI   9
LEXINGTON      SUNNY     18   4  55 S6        30.52F WCI  10
HOLDREGE       SUNNY     17   4  56 SW3       30.54S
HEBRON         SUNNY     19   1  45 E7        30.60F WCI  10

...NEBRASKA PANHANDLE...

CITY           SKY/WX    TMP DP  RH WIND       PRES   REMARKS
CHADRON        MOSUNNY   -2 -12  62 NW3       30.30F
ALLIANCE       SUNNY      6   2  83 SE7       30.28F WCI  -6
SCOTTSBLUFF    SUNNY      4  -3  73 E9        30.29R WCI -10
SIDNEY         SUNNY     22   8  55 S14       30.29S WCI   9

...WESTERN AND NORTH CENTRAL NEBRASKA...

CITY           SKY/WX    TMP DP  RH WIND       PRES   REMARKS
VALENTINE      SUNNY      6  -3  66 CALM      30.44R
AINSWORTH      MOSUNNY   12   2  66 SW10      30.45S WCI  -2
ONEILL         SUNNY     11   0  60 S12       30.55R WCI  -3
BROKEN BOW     SUNNY     14  -2  49 S12       30.50S WCI   0
IMPERIAL       SUNNY     16   7  67 SE12      30.42S WCI   3
NORTH PLATTE   SUNNY     13   3  64 S6        30.48R WCI   4
MCCOOK         SUNNY     18   4  54 S7        30.50F WCI   9

...EASTERN NEBRASKA...

CITY           SKY/WX    TMP DP  RH WIND       PRES   REMARKS
NORFOLK        SUNNY     12   2  64 SE6       30.58F WCI   3
SO SIOUX CITY  SUNNY     11   4  73 CALM      30.67R
TEKAMAH        CLOUDY    14   6  70 CALM      30.67S
COLUMBUS       SUNNY     18   6  59 E3        30.63S
ALBION         SUNNY     15   2  58 SE6       30.58S WCI   6
OMAHA EPPLEY   PTSUNNY   17   8  67 VRB3      30.66F
OFFUTT AFB     CLOUDY    17   6  59 N6        30.65F WCI   9
MILLARD        CLOUDY    18   4  54 N3        30.65S
LINCOLN        CLOUDY    18   3  52 NE6       30.65S WCI  10
NEBRASKA CITY  CLOUDY    17   9  71 NE7       30.63S WCI   7
BEATRICE       CLOUDY    19   7  59 NE8       30.61F WCI   9
FALLS CITY     CLOUDY    18   9  68 NE6       30.63S WCI  10

...NORTHERN KANSAS...

CITY           SKY/WX    TMP DP  RH WIND       PRES   REMARKS
GOODLAND       MOSUNNY   19   4  51 S10       30.38F WCI   7
HILL CITY      SUNNY     17   2  51 CALM      30.55S
NORTON         SUNNY     18   0  45 CALM      30.51F
PHILLIPSBURG   SUNNY     19   1  45 CALM      30.57F
SMITH CENTER   PTSUNNY   19   0  42 NE5       30.58F WCI  13
BELOIT         SUNNY     18   0  45 CALM      30.60S
HAYS           SUNNY     19   2  47 NE12      30.54  WCI   7
RUSSELL        CLOUDY    20   2  45 NE8       30.54S WCI  10
CONCORDIA      CLOUDY    19   3  49 NE10      30.58F WCI   7
SALINA         MOSUNNY   22   8  55 N13       30.59S WCI  10
TOPEKA         CLOUDY    20  14  77 NE15      30.59F WCI   6



USA.gov is the U.S. government's official web portal to all federal, state and local government web resources and services.